THORAD AGENA D DEB

Satellite information

Favourite Embed

Satellite Type and Status

DEBRISIN ORBIT

Key statistics

Satellite THORAD AGENA D DEB at a glance.

Uptime

20243

Days in orbit

Revolutions

≈ 13.8

Per day

Orbit

SSO

Sun Synchronous Orbit

Inclination

100.2

Latest

Satellite identification and parameters

Extended collection of information and parameters for THORAD AGENA D DEB.

Object identification

Identified? True

Debris? True

Object name: THORAD AGENA D DEB

International designator: 1970-025PL

Object number (NORAD): 18418

Object ID (CCSDS): 18418

Country: UNITED STATES OF AMERICA (US)

Current information (Y/N): Y

RCS size: SMALL

Orbital parameters

Period: 104.387 minutes

Inclination: 100.1767 deg

SMA: 7343.842 km

Apoapsis: 966.183 km

Periapsis: 965.231 km

RAAN: 37.0356 deg

Eccentricy: 0.00006482

Argument of periapsis: 275.3121 deg

Mean anomaly: 148.957 deg

Mean motion: 13.79487411 rev/day

Mean motion (dot): 0.00001836 rev/day2

B* drag term: 0.0018325367 1/REarth

Two-line elements (TLE)

Creation date: Sept. 8, 2025, 3:16 a.m.

Reference frame: TEME

Reference center: EARTH

Epoch: Sept. 7, 2025, 9:51 a.m. UTC

TLE line 0: 0 THORAD AGENA D DEB

TLE line 1: 1 18418U 70025PL 25250.41105236 .00001836 00000-0 18325-2 0 9991

TLE line 2: 2 18418 100.1767 37.0356 0000648 275.3121 148.9570 13.79487411751641

Live tracking on map

Real-time ground track for satellite THORAD AGENA D DEB.

In-orbit conjunctions

A list of the most updated potential collisions computed for object THORAD AGENA D DEB.

Target Orbit TCA Probability of collision Miss distance Type
COSMOS 1181 LEO 2024-11-22 15:26:17 0.0006955278 184.0 (m) PAYLOAD
COSMOS 729 LEO 2024-09-28 12:42:25 0.0002636007 190.0 (m) PAYLOAD

Associated space launch

Meteorological research and development satellite

THORAD AGENA D DEB was lifted into orbit during the mission ‘Thorad SLV-2G Agena D | Nimbus 4’, on board a Thorad SLV-2G Agena D space rocket.

The launch took place on April 8, 1970, 8:17 a.m. from Space Launch Complex 2E.

For more information about the launch, click the button.

Launch to space Thorad SLV-2G Agena D | Nimbus 4
Thorad SLV-2G Agena D | Nimbus 4

Agency: N/A

Status: Launch Successful

Launch date: April 8, 1970, 8:17 a.m. UTC

Rocket: Thorad SLV-2G Agena D

Launch pad: Space Launch Complex 2E

Location: Vandenberg SFB, CA, USA

...

Latest news about this satellite

There are no fresh news available about this satellite. Check back as we update our databases every day.


Newsletter sign-up

Weekly statistics, charts and insights to help you stay on top of the space industry.